Home > Time Zones > World Clock > Weather > U.S.A. > Yuma > Past weeks

Flag for U.S.A. Weather past 2 weeks in Yuma, Arizona, U.S.A.

Now
89 °F

Passing clouds.


Feels Like: 86 °F
Forecast: 71 / 94 °F
Wind: No wind

Location: Yuma Marine Corps Air Station

Current Time: Oct 21, 2014 at 7:45:17 PM

Latest Report: Oct 21, 2014 at 6:57 PM


Visibility: 10 mi

Pressure: 29.72 "Hg

Humidity: 24%

Dew point: 48 °F

Location of YumaLocation

Historic Weather in Yuma — Graph

°F

Yuma temperature yesterday

Maximum temperature yesterday: 93 °F (at 3:57 PM)
Minimum temperature yesterday: 74 °F (at 5:57 AM)
Average temperature yesterday: 83 °F

Past Weeks' High & Low Weather Summary

 TemperatureHumidityPressure
High97 °F (Oct 12, 3:57 PM)85% (Oct 11, 4:57 AM)30.00 "Hg (Oct 11, 4:57 AM)
Low67 °F (Oct 16, 6:57 AM)5% (Oct 13, 10:57 AM)29.70 "Hg (Oct 18, 4:57 PM)
Average81 °F43%29.83 "Hg
* Reported Oct 6 6:57 PM — Oct 21 6:57 PM, Yuma, Weather by CustomWeather, © 2014

Note: Actual official high and low records may vary slightly from our data, if they occured in-between our weather recording intervals... More about our weather records

Advertising

Yuma weather history for previous 24 hours

 ConditionsComfort  
Time TempWeatherWind HumidityBarometerVisibility
6:57 PM
Oct 21
89 °FPassing clouds.No wind24%29.72 "Hg10 mi
5:57 PM91 °FPassing clouds.No wind23%29.72 "Hg10 mi
4:57 PM92 °FPassing clouds.5 mph23%29.72 "Hg10 mi
3:57 PM93 °FPassing clouds.No wind22%29.72 "Hg10 mi
2:57 PM94 °FSunny.No wind22%29.73 "Hg10 mi
1:57 PM92 °FPassing clouds.6 mph26%29.75 "Hg10 mi
12:57 PM92 °FPassing clouds.3 mph27%29.77 "Hg10 mi
11:57 AM90 °FPassing clouds.3 mph32%29.80 "Hg10 mi
10:57 AM86 °FPassing clouds.No wind37%29.81 "Hg10 mi
9:57 AM83 °FPassing clouds.No wind40%29.83 "Hg10 mi
8:57 AM79 °FScattered clouds.5 mph42%29.83 "Hg10 mi
7:57 AM75 °FScattered clouds.7 mph43%29.81 "Hg10 mi
6:57 AM72 °FPassing clouds.5 mph49%29.80 "Hg10 mi
5:57 AM72 °FClear.3 mph61%29.79 "Hg10 mi
4:57 AM73 °FClear.No wind64%29.78 "Hg10 mi
3:57 AM73 °FClear.3 mph62%29.77 "Hg10 mi
2:57 AM76 °FClear.6 mph60%29.77 "Hg10 mi
1:57 AM77 °FClear.6 mph58%29.78 "Hg10 mi
12:57 AM77 °FClear.No wind60%29.79 "Hg10 mi
11:57 PM
Oct 20
78 °FClear.5 mph54%29.78 "Hg10 mi
10:57 PM78 °FClear.6 mph42%29.78 "Hg10 mi
9:57 PM80 °FClear.No wind36%29.78 "Hg10 mi
8:57 PM82 °FClear.5 mph35%29.76 "Hg10 mi
7:57 PM85 °FClear.No wind31%29.75 "Hg10 mi
Weather by CustomWeather, © 2014

See weather overviewHow to use our weather pages